Location: Unspecified
(0.0000°N, 0.0000°E)
Time: 13:44:49
(UTC+00:00)

Courier 1B - Pass Details

Date: 22 November 2019
Orbit: 963 x 1209 km, 28.3° (Epoch: 08 December)

Event Time Altitude Azimuth Distance (km) Brightness Sun altitude
Rises 09:13:12 0° 332° (NNW) 3,667 10.2 47.6°
Reaches altitude 10° 09:19:19 10° 15° (NNE) 2,686 9.8 48.9°
Maximum altitude 09:19:56 10° 21° (NNE) 2,674 9.8 49.0°
Drops below altitude 10° 09:20:33 10° 26° (NNE) 2,682 9.9 49.1°
Sets 09:26:36 0° 69° (ENE) 3,633 10.8 50.4°
